Location: Puketoi
(40.5833°S, 176.0167°E)
Time: 15:19:43
(UTC+00:00)

Cosmos 2219 - Pass Details

Date: 08 February 2023
Orbit: 835 x 858 km, 71.1° (Epoch: 23 March)

Event Time Altitude Azimuth Distance (km) Brightness Sun altitude
Rises 15:02:53 0° 198° (SSW) 3,469 6.8 -24.1°
Reaches altitude 10° 15:05:30 10° 192° (SSW) 2,526 6.1 -23.8°
Maximum altitude 15:11:03 44° 119° (ESE) 1,180 4.3 -23.1°
Drops below altitude 10° 15:16:31 10° 47° (NE) 2,494 5.7 -22.4°
Sets 15:19:04 0° 41° (NE) 3,420 6.3 -22.1°
